GW4448 Weather Reports


time (UTC)temp
F
wind
direction
speed
knots
gust
knots
rain 1hr
in
rain 24hr
in
rain mn
in
humidity
%
barometer
mb
20260507080049 52 0 0.0 1.7 0.00 0.00 0.00 96 1016.9
20260507075538 52 0 0.0 2.6 0.00 0.00 0.00 95 1016.8
20260507075038 51 234 0.9 2.6 0.00 0.00 0.00 95 1016.9
20260507074553 52 234 0.0 0.9 0.00 0.00 0.00 95 1016.8
20260507074035 51 0 0.0 2.6 0.00 0.00 0.00 96 1016.8
20260507073537 51 0 0.0 2.6 0.00 0.00 0.00 95 1016.8
20260507073048 51 0 0.0 2.6 0.00 0.00 0.00 94 1016.7
20260507072537 51 234 0.0 1.7 0.00 0.00 0.00 94 1016.8
20260507072037 51 0 0.0 1.7 0.00 0.00 0.00 94 1017.0
20260507071545 51 234 0.0 2.6 0.00 0.00 0.00 94 1017.1
20260507071040 52 0 0.9 2.6 0.00 0.00 0.00 95 1017.1
20260507070537 52 234 0.9 1.7 0.00 0.00 0.00 94 1017.1
20260507070048 52 0 0.0 2.6 0.00 0.00 0.00 94 1017.2
20260507065535 52 0 0.9 2.6 0.00 0.00 0.00 94 1017.2
20260507065035 52 0 0.0 1.7 0.00 0.00 0.00 94 1017.1
20260507064606 52 0 0.0 1.7 0.00 0.00 0.00 94 1017.1
20260507064035 52 0 0.0 1.7 0.00 0.00 0.00 94 1017.1
20260507063538 52 0 0.0 1.7 0.00 0.00 0.00 94 1017.1
20260507063047 52 0 0.0 0.9 0.00 0.00 0.00 94 1017.2
20260507062537 52 0 0.0 1.7 0.00 0.00 0.00 94 1017.1
20260507062037 52 0 0.0 1.7 0.00 0.00 0.00 94 1017.1
20260507061546 52 234 0.0 0.9 0.00 0.00 0.00 94 1017.1
20260507061037 52 0 0.0 1.7 0.00 0.00 0.00 94 1017.2
20260507060537 52 0 0.0 1.7 0.00 0.00 0.00 94 1017.1
20260507060045 52 234 0.0 2.6 0.00 0.00 0.00 93 1017.3
20260507055537 52 0 0.0 2.6 0.00 0.00 0.00 93 1017.3
20260507055036 52 234 0.0 1.7 0.00 0.00 0.00 93 1017.4
20260507054544 53 234 0.9 2.6 0.00 0.00 0.00 93 1017.4
20260507054039 53 234 0.9 2.6 0.00 0.00 0.00 93 1017.4
20260507053537 53 234 0.0 1.7 0.00 0.00 0.00 93 1017.4
20260507053044 53 234 0.0 1.7 0.00 0.00 0.00 93 1017.4
20260507052541 53 0 0.0 1.7 0.00 0.00 0.00 93 1017.5
20260507052034 53 234 0.9 1.7 0.00 0.00 0.00 93 1017.4
20260507051545 53 234 0.0 1.7 0.00 0.00 0.00 92 1017.3
20260507051033 53 0 0.0 1.7 0.00 0.00 0.00 92 1017.4
20260507050537 53 0 0.0 1.7 0.00 0.00 0.00 92 1017.4
20260507050053 54 234 0.0 1.7 0.00 0.00 0.00 92 1017.4
20260507045535 54 0 0.0 1.7 0.00 0.00 0.00 92 1017.3
20260507045034 54 234 0.0 1.7 0.00 0.00 0.00 92 1017.3
20260507044550 54 0 0.0 1.7 0.00 0.00 0.00 91 1017.3
20260507044036 54 0 0.9 1.7 0.00 0.00 0.00 91 1017.3
20260507043533 54 234 0.0 1.7 0.00 0.00 0.00 91 1017.3
20260507043052 54 234 0.9 1.7 0.00 0.00 0.00 90 1017.2
20260507042534 54 234 0.9 1.7 0.00 0.00 0.00 90 1017.1
20260507042034 54 234 0.9 1.7 0.00 0.00 0.00 90 1017.1
20260507041552 55 0 0.0 1.7 0.00 0.00 0.00 89 1017.1
20260507041035 55 0 0.0 1.7 0.00 0.00 0.00 89 1017.1
20260507040534 55 234 0.9 1.7 0.00 0.00 0.00 88 1017.0
20260507040055 55 234 0.0 1.7 0.00 0.00 0.00 88 1017.0
20260507035534 55 0 0.0 1.7 0.00 0.00 0.00 87 1017.0
20260507035033 56 234 0.9 1.7 0.00 0.00 0.00 87 1016.9
20260507034545 56 234 0.0 1.7 0.00 0.00 0.00 86 1016.8
20260507034032 56 234 0.9 1.7 0.00 0.00 0.00 85 1016.6
20260507033538 56 0 0.0 2.6 0.00 0.00 0.00 84 1016.6
20260507033045 57 234 0.9 2.6 0.00 0.00 0.00 83 1016.5
20260507032533 57 234 0.9 1.7 0.00 0.00 0.00 82 1016.5
20260507032034 58 234 0.0 1.7 0.00 0.00 0.00 82 1016.5
20260507031543 58 234 0.0 1.7 0.00 0.00 0.00 81 1016.3
20260507031033 59 0 0.0 0.0 0.00 0.00 0.00 80 1016.4
20260507030534 59 0 0.0 0.0 0.00 0.00 0.00 80 1016.2
20260507030044 60 0 0.0 0.0 0.00 0.00 0.00 80 1016.1
20260507025535 60 0 0.0 2.6 0.00 0.00 0.00 80 1016.1
20260507025035 60 0 0.0 3.5 0.00 0.00 0.00 79 1016.0
20260507024545 61 234 0.0 3.5 0.00 0.00 0.00 79 1016.1
20260507024034 61 0 0.9 3.5 0.00 0.00 0.00 78 1016.1
20260507023535 61 219 0.0 4.3 0.00 0.00 0.00 78 1016.0
20260507023049 62 0 0.9 5.2 0.00 0.00 0.00 77 1016.0
20260507022535 62 320 0.9 5.2 0.00 0.00 0.00 77 1016.0
20260507022035 63 226 2.6 5.2 0.00 0.00 0.00 77 1015.9
20260507021552 63 0 1.7 7.0 0.00 0.00 0.00 77 1015.9
20260507021035 63 236 2.6 7.0 0.00 0.00 0.00 76 1015.9
20260507020536 64 180 1.7 7.0 0.00 0.00 0.00 76 1015.8
20260507020045 64 211 2.6 7.0 0.00 0.00 0.00 75 1015.8
20260507015537 64 209 2.6 6.1 0.00 0.00 0.00 74 1015.9
20260507015035 65 0 1.7 6.1 0.00 0.00 0.00 73 1015.7
20260507014554 65 221 2.6 6.1 0.00 0.00 0.00 72 1015.8
20260507014035 65 229 2.6 7.0 0.00 0.00 0.00 71 1015.7
20260507013534 66 207 1.7 7.8 0.00 0.00 0.00 70 1015.8
20260507013103 66 155 2.6 8.7 0.00 0.00 0.00 69 1015.8
20260507012535 66 223 4.3 8.7 0.00 0.00 0.00 69 1015.7
20260507012035 66 203 3.5 8.7 0.00 0.00 0.00 68 1015.7
20260507011545 67 191 2.6 8.7 0.00 0.00 0.00 68 1015.7
20260507011034 67 225 3.5 8.7 0.00 0.00 0.00 67 1015.6
20260507010534 67 201 3.5 9.6 0.00 0.00 0.00 68 1015.8
20260507010042 67 234 4.3 9.6 0.00 0.00 0.00 67 1015.8
20260507005535 67 207 3.5 9.6 0.00 0.00 0.00 67 1016.0
20260507005036 67 219 5.2 9.6 0.00 0.00 0.00 67 1015.9
20260507004542 68 200 3.5 12.2 0.00 0.00 0.00 66 1015.9
20260507004035 68 219 5.2 12.2 0.00 0.00 0.00 66 1015.9
20260507003535 68 230 3.5 11.3 0.00 0.00 0.00 65 1015.9
20260507003044 68 201 5.2 11.3 0.00 0.00 0.00 65 1015.9
20260507002534 69 234 5.2 11.3 0.00 0.00 0.00 62 1015.8
20260507002036 69 225 4.3 11.3 0.00 0.00 0.00 63 1015.9
20260507001601 69 163 5.2 11.3 0.00 0.00 0.00 63 1015.9
20260507001035 69 239 3.5 10.4 0.00 0.00 0.00 62 1015.8
20260507000535 69 265 3.5 13.0 0.00 0.00 0.00 62 1015.8
20260507000044 69 233 5.2 13.0 0.00 0.00 0.00 61 1015.9
20260506235537 69 194 3.5 12.2 0.00 0.00 0.00 61 1015.8
20260506235032 70 227 3.5 12.2 0.00 0.00 0.00 61 1015.9
20260506234548 70 213 5.2 13.9 0.00 0.00 0.00 61 1015.8
20260506234038 70 252 5.2 13.9 0.00 0.00 0.00 62 1015.9
20260506233537 70 236 6.1 13.9 0.00 0.00 0.00 61 1015.8
20260506233047 70 52 4.3 11.3 0.00 0.00 0.00 61 1015.8
20260506232533 70 267 5.2 13.9 0.00 0.00 0.00 63 1015.8
20260506232035 69 211 6.1 13.9 0.00 0.00 0.00 63 1015.9
20260506231548 69 221 6.1 13.0 0.00 0.00 0.00 63 1015.9
20260506231035 69 252 5.2 13.0 0.00 0.00 0.00 64 1015.9
20260506230536 69 236 6.1 13.0 0.00 0.00 0.00 62 1015.9
20260506230044 70 246 5.2 11.3 0.00 0.00 0.00 62 1015.9
20260506225535 70 224 4.3 14.8 0.00 0.00 0.00 63 1016.1
20260506225035 70 242 3.5 14.8 0.00 0.00 0.00 63 1016.1
20260506224549 70 240 5.2 14.8 0.00 0.00 0.00 63 1016.2
20260506224037 70 229 3.5 14.8 0.00 0.00 0.00 65 1016.3
20260506223535 69 259 5.2 14.8 0.00 0.00 0.00 64 1016.2
20260506223100 69 249 5.2 13.9 0.00 0.00 0.00 65 1016.3
20260506222535 69 243 7.0 13.9 0.00 0.00 0.00 64 1016.4
20260506222036 70 235 4.3 13.9 0.00 0.00 0.00 64 1016.5
20260506221543 70 221 6.1 13.9 0.00 0.00 0.00 64 1016.7
20260506221035 70 190 6.1 13.9 0.00 0.00 0.00 63 1016.6
20260506220535 70 217 5.2 13.9 0.00 0.00 0.00 63 1016.8
20260506220049 70 228 4.3 12.2 0.00 0.00 0.00 63 1016.9
20260506215535 71 269 6.1 13.0 0.00 0.00 0.00 62 1016.9
20260506215034 71 213 6.1 13.0 0.00 0.00 0.00 64 1017.0
20260506214543 71 240 5.2 13.0 0.00 0.00 0.00 63 1017.1
20260506214037 71 256 4.3 10.4 0.00 0.00 0.00 64 1017.1
20260506213538 70 218 5.2 10.4 0.00 0.00 0.00 64 1017.2
20260506213044 69 221 4.3 10.4 0.00 0.00 0.00 65 1017.3
20260506212535 69 307 4.3 10.4 0.00 0.00 0.00 64 1017.3
20260506212036 70 267 3.5 12.2 0.00 0.00 0.00 62 1017.3
20260506211549 70 286 4.3 12.2 0.00 0.00 0.00 62 1017.3
20260506211036 70 250 5.2 12.2 0.00 0.00 0.00 63 1017.3
20260506210534 70 286 4.3 12.2 0.00 0.00 0.00 63 1017.4
20260506210050 70 269 4.3 11.3 0.00 0.00 0.00 64 1017.4
20260506205534 70 219 4.3 11.3 0.00 0.00 0.00 63 1017.5
20260506205035 70 284 3.5 9.6 0.00 0.00 0.00 62 1017.4
20260506204548 70 227 4.3 9.6 0.00 0.00 0.00 63 1017.5
20260506204034 70 260 4.3 9.6 0.00 0.00 0.00 63 1017.5
20260506203535 70 215 2.6 10.4 0.00 0.00 0.00 62 1017.6
20260506203047 70 267 3.5 10.4 0.00 0.00 0.00 62 1017.5
20260506202535 70 240 5.2 10.4 0.00 0.00 0.00 63 1017.6
20260506202035 70 236 3.5 11.3 0.00 0.00 0.00 64 1017.7
20260506201553 69 258 3.5 11.3 0.00 0.00 0.00 65 1017.7
20260506201040 69 252 3.5 10.4 0.00 0.00 0.00 64 1017.7
20260506200534 70 267 4.3 9.6 0.00 0.00 0.00 63 1017.8
20260506200120 69 235 4.3 9.6 0.00 0.00 0.00 67 1017.8
20260506195535 69 212 3.5 9.6 0.00 0.00 0.00 67 1017.8
20260506195035 68 246 4.3 10.4 0.00 0.00 0.00 68 1017.8
20260506194544 68 263 4.3 10.4 0.00 0.00 0.00 67 1017.9
20260506194035 68 261 4.3 10.4 0.00 0.00 0.00 68 1018.0
20260506193538 68 262 4.3 10.4 0.00 0.00 0.00 68 1017.9
20260506193102 69 262 4.3 10.4 0.00 0.00 0.00 66 1018.0
20260506192534 68 211 3.5 11.3 0.00 0.00 0.00 68 1017.9
20260506192037 68 247 5.2 11.3 0.00 0.00 0.00 67 1017.9
20260506191554 68 240 4.3 11.3 0.00 0.00 0.00 70 1018.1
20260506191035 67 236 2.6 9.6 0.00 0.00 0.00 70 1018.0
20260506190535 68 232 4.3 9.6 0.00 0.00 0.00 68 1018.0
20260506190050 68 290 4.3 11.3 0.00 0.00 0.00 68 1018.0
20260506185541 69 221 3.5 11.3 0.00 0.00 0.00 69 1018.0
20260506185044 69 187 3.5 11.3 0.00 0.00 0.00 68 1018.0
20260506184553 68 243 3.5 8.7 0.00 0.00 0.00 69 1018.3
20260506184036 68 255 3.5 9.6 0.00 0.00 0.00 68 1018.3
20260506183535 68 257 3.5 9.6 0.00 0.00 0.00 69 1018.3
20260506183045 68 237 3.5 10.4 0.00 0.00 0.00 69 1018.3
20260506182534 68 250 2.6 12.2 0.00 0.00 0.00 70 1018.2
20260506182034 68 165 4.3 12.2 0.00 0.00 0.00 70 1018.3
20260506181544 68 220 4.3 10.4 0.00 0.00 0.00 68 1018.3
20260506181035 69 258 2.6 8.7 0.00 0.00 0.00 68 1018.2
20260506180535 69 213 4.3 11.3 0.00 0.00 0.00 68 1018.3
20260506180050 69 211 3.5 11.3 0.00 0.00 0.00 66 1018.2
20260506175535 69 202 2.6 9.6 0.00 0.00 0.00 66 1018.3
20260506175035 69 184 2.6 7.8 0.00 0.00 0.00 67 1018.3
20260506174552 68 225 1.7 7.8 0.00 0.00 0.00 68 1018.3
20260506174037 68 211 1.7 6.1 0.00 0.00 0.00 68 1018.3
20260506173538 67 250 1.7 6.1 0.00 0.00 0.00 67 1018.3
20260506173041 67 246 2.6 7.0 0.00 0.00 0.00 67 1018.3
20260506172534 67 182 2.6 7.0 0.00 0.00 0.00 68 1018.2
20260506172034 66 244 0.9 6.1 0.00 0.00 0.00 68 1018.2
20260506171552 66 266 2.6 7.0 0.00 0.00 0.00 68 1018.3
20260506171035 66 227 2.6 7.0 0.00 0.00 0.00 67 1018.2
20260506170535 66 225 2.6 8.7 0.00 0.00 0.00 66 1018.2
20260506170047 67 258 2.6 8.7 0.00 0.00 0.00 67 1018.2
20260506165536 66 232 2.6 7.8 0.00 0.00 0.00 67 1018.2
20260506165035 67 230 2.6 7.0 0.00 0.00 0.00 66 1018.1
20260506164543 66 215 0.9 7.0 0.00 0.00 0.00 66 1018.2
20260506164035 66 238 2.6 6.1 0.00 0.00 0.00 65 1018.3
20260506163535 66 284 0.9 7.0 0.00 0.00 0.00 67 1018.3
20260506163048 66 142 1.7 7.0 0.00 0.00 0.00 66 1018.3
20260506162534 66 179 1.7 5.2 0.00 0.00 0.00 66 1018.3
20260506162036 65 126 0.9 5.2 0.00 0.00 0.00 67 1018.3
20260506161553 65 144 0.9 5.2 0.00 0.00 0.00 66 1018.2
20260506161034 64 0 1.7 5.2 0.00 0.00 0.00 68 1018.4
20260506160538 64 0 0.9 3.5 0.00 0.00 0.00 68 1018.4
20260506160040 63 352 0.9 5.2 0.00 0.00 0.00 67 1018.4
20260506155534 64 79 1.7 5.2 0.00 0.00 0.00 68 1018.3
20260506155034 63 44 0.9 3.5 0.00 0.00 0.00 67 1018.3
20260506154538 63 58 0.0 3.5 0.00 0.00 0.00 69 1018.3
20260506154035 62 55 1.7 4.3 0.00 0.00 0.00 68 1018.3
20260506153535 62 53 0.9 7.8 0.00 0.00 0.00 69 1018.4
20260506153045 61 103 1.7 7.8 0.00 0.00 0.00 70 1018.4
20260506152534 61 39 2.6 7.8 0.00 0.00 0.00 70 1018.4
20260506152034 61 98 2.6 6.1 0.00 0.00 0.00 71 1018.3
20260506151543 60 51 1.7 9.6 0.00 0.00 0.00 73 1018.3
20260506151034 60 76 4.3 9.6 0.00 0.00 0.00 74 1018.3
20260506150534 59 47 3.5 7.8 0.00 0.00 0.00 75 1018.3
20260506150043 59 49 2.6 8.7 0.00 0.00 0.00 76 1018.3
20260506145534 58 96 4.3 8.7 0.00 0.00 0.00 76 1018.2
20260506145034 58 42 1.7 8.7 0.00 0.00 0.00 78 1018.2
20260506144540 57 92 3.5 7.0 0.00 0.00 0.00 78 1018.1
20260506144034 57 46 1.7 9.6 0.00 0.00 0.00 79 1018.1
20260506143535 56 67 3.5 9.6 0.00 0.00 0.00 80 1018.2
20260506143044 56 35 4.3 9.6 0.00 0.00 0.00 81 1018.1
20260506142535 55 64 3.5 8.7 0.00 0.00 0.00 82 1018.1
20260506142033 54 23 0.0 7.8 0.00 0.00 0.00 84 1018.0
20260506141545 54 0 1.7 9.6 0.00 0.00 0.00 84 1018.1
20260506141036 54 34 3.5 9.6 0.00 0.00 0.00 84 1018.0
20260506140535 53 79 1.7 5.2 0.00 0.00 0.00 85 1018.0
20260506140047 53 0 0.9 4.3 0.00 0.00 0.00 86 1018.0
20260506135535 53 0 0.0 4.3 0.00 0.00 0.00 86 1017.9
20260506135034 53 63 1.7 4.3 0.00 0.00 0.00 86 1017.9
20260506134610 53 97 0.0 4.3 0.00 0.00 0.00 86 1017.8
20260506134048 52 0 0.9 4.3 0.00 0.00 0.00 86 1017.9
20260506133537 52 40 0.0 7.8 0.00 0.00 0.00 86 1017.8
20260506133048 52 0 0.9 7.8 0.00 0.00 0.00 87 1017.7
20260506132537 52 30 2.6 7.8 0.00 0.00 0.00 87 1017.7
20260506132037 52 46 0.9 8.7 0.00 0.00 0.00 87 1017.7
20260506131604 52 81 1.7 8.7 0.00 0.00 0.00 88 1017.7
20260506131035 52 31 0.9 3.5 0.00 0.00 0.00 87 1017.7
20260506130535 52 0 0.0 3.5 0.00 0.00 0.00 88 1017.7
20260506130044 52 22 0.0 3.5 0.00 0.00 0.00 88 1017.6
20260506125533 52 0 0.0 7.8 0.00 0.00 0.00 88 1017.6
20260506125034 52 22 0.9 7.8 0.00 0.00 0.00 89 1017.6
20260506124543 52 57 0.9 3.5 0.00 0.00 0.00 89 1017.5
20260506124034 52 349 0.0 2.6 0.00 0.00 0.00 89 1017.5
20260506123537 52 5 0.0 2.6 0.00 0.00 0.00 89 1017.4
20260506123045 52 0 0.0 2.6 0.00 0.00 0.00 89 1017.4
20260506122535 52 0 0.0 3.5 0.00 0.00 0.00 89 1017.3
20260506122039 52 0 0.9 4.3 0.00 0.00 0.00 89 1017.2
20260506121539 52 17 0.9 4.3 0.00 0.00 0.00 89 1017.1
20260506121037 52 0 0.9 5.2 0.00 0.00 0.00 90 1017.1
20260506120535 52 17 0.9 5.2 0.00 0.00 0.00 90 1017.0
20260506120044 52 336 0.9 4.3 0.00 0.00 0.00 91 1017.1
20260506115536 52 0 0.9 4.3 0.00 0.00 0.00 91 1017.1
20260506115036 52 46 0.9 4.3 0.00 0.00 0.00 91 1017.0
20260506114549 52 46 0.9 4.3 0.00 0.00 0.00 92 1017.0
20260506114034 51 43 0.0 5.2 0.00 0.00 0.00 93 1017.1
20260506113536 51 17 1.7 5.2 0.00 0.00 0.00 93 1017.0
20260506113044 51 355 0.9 5.2 0.00 0.00 0.00 93 1017.0
20260506112535 51 13 0.0 3.5 0.00 0.00 0.00 93 1017.0
20260506112037 51 0 0.0 3.5 0.00 0.00 0.00 93 1017.1
20260506111547 51 24 0.0 3.5 0.00 0.00 0.00 93 1017.0
20260506111034 51 0 0.0 3.5 0.00 0.00 0.00 93 1017.0
20260506110534 51 27 0.0 3.5 0.00 0.00 0.00 94 1017.1
20260506110051 51 0 0.0 3.5 0.00 0.00 0.00 94 1017.1
20260506105534 51 350 0.9 1.7 0.00 0.00 0.00 94 1017.1
20260506105036 51 343 0.0 1.7 0.00 0.00 0.00 93 1017.0
20260506104545 51 0 0.0 1.7 0.00 0.00 0.00 93 1017.0
20260506104034 51 343 0.0 1.7 0.00 0.00 0.00 93 1017.0
20260506103533 51 0 0.0 1.7 0.00 0.00 0.00 92 1016.9
20260506103047 51 0 0.0 1.7 0.00 0.00 0.00 92 1016.9
20260506102534 51 343 0.0 1.7 0.00 0.00 0.00 92 1016.8
20260506102037 51 0 0.0 0.9 0.00 0.00 0.00 91 1016.8
20260506101544 52 0 0.0 0.9 0.00 0.00 0.00 92 1016.8
20260506101034 52 0 0.0 0.9 0.00 0.00 0.00 92 1016.8
20260506100534 52 0 0.0 1.7 0.00 0.00 0.00 92 1016.9
20260506100044 52 0 0.0 1.7 0.00 0.00 0.00 92 1017.0
20260506095534 52 0 0.0 1.7 0.00 0.00 0.00 92 1016.9
20260506095037 52 0 0.0 1.7 0.00 0.00 0.00 92 1017.0
20260506094541 52 343 0.0 1.7 0.00 0.00 0.00 92 1017.0
20260506094039 52 0 0.0 1.7 0.00 0.00 0.00 92 1017.0
20260506093534 52 342 0.0 2.6 0.00 0.00 0.00 92 1017.1
20260506093051 52 332 0.9 2.6 0.00 0.00 0.00 92 1017.2
20260506092534 52 344 0.0 2.6 0.00 0.00 0.00 92 1017.1
20260506092034 52 333 0.0 3.5 0.00 0.00 0.00 93 1017.2
20260506091544 52 0 0.0 3.5 0.00 0.00 0.00 93 1017.3
20260506091034 52 341 0.9 3.5 0.00 0.00 0.00 93 1017.3
20260506090534 52 345 0.9 3.5 0.00 0.00 0.00 93 1017.2
20260506090045 52 336 0.0 3.5 0.00 0.00 0.00 93 1017.3
20260506085534 52 342 0.0 3.5 0.00 0.00 0.00 93 1017.3
20260506085035 52 342 0.9 3.5 0.00 0.00 0.00 93 1017.2
20260506084545 52 0 0.0 3.5 0.00 0.00 0.00 93 1017.3
20260506084036 52 0 0.9 3.5 0.00 0.00 0.00 93 1017.5
20260506083535 52 0 0.9 2.6 0.00 0.00 0.00 93 1017.4
20260506083042 52 0 0.0 1.7 0.00 0.00 0.00 93 1017.4
20260506082536 52 335 0.0 2.6 0.00 0.00 0.00 92 1017.4
20260506082035 52 0 0.0 2.6 0.00 0.00 0.00 92 1017.4
20260506081549 52 0 0.9 3.5 0.00 0.00 0.00 93 1017.4
20260506081034 52 0 0.0 3.5 0.00 0.00 0.00 93 1017.5
20260506080534 52 0 0.9 3.5 0.00 0.00 0.00 93 1017.5